Regional Weather Roundup
Issued by NWS

Home | Current Version | Previous Version | Graphics & Text | Print | Product List | Glossary On
Versions: 1 2 3 4 5 6 7 8 9 10 11 12 13 14 15 16 17 18 19 20 21 22 23 24 25 26 27 28 29 30 31 32 33 34 35 36 37 38 39 40 41 42 43 44 45 46 47 48 49 50
492
ASUS45 KBOU 190007
RWRCO

WEATHER ROUNDUP FOR COLORADO
NATIONAL WEATHER SERVICE DENVER/BOULDER CO
600 PM MDT FRI AUG 18 2017

NOTE: "FAIR" INDICATES FEW OR NO CLOUDS BELOW 12000 FEET WITH NO
SIGNIFICANT WEATHER AND/OR OBSTRUCTIONS TO VISIBILITY.

COZ001>005-013-030-031-190100-
...NORTHWEST COLORADO...

CITY           SKY/WX    TMP DP  RH WIND       PRES   REMARKS
CRAIG          FAIR      86  23  10 W9G17     30.19F
HAYDEN         FAIR      82  31  15 W13       30.23S
MEEKER         PTSUNNY   86  36  16 SW8       30.20S
RABBIT EARS PA FAIR      63  32  31 MISG      30.55S
STEAMBOAT SPGS FAIR      81  32  16 W12       30.24S
WALDEN         FAIR      75  25  15 W12       30.37S
$$

COZ006>008-011-190100-
...WEST CENTRAL VALLEYS...

CITY           SKY/WX    TMP DP  RH WIND       PRES   REMARKS
GRAND JUNCTION FAIR      93  26   9 NW15      30.08F
MONTROSE       FAIR      87  34  15 N8        30.17S
EAGLE          FAIR      85  29  13 W12       30.23S
RIFLE          FAIR      90  19   7 W14       30.13S
DELTA          FAIR      94  29  10 NW9       30.12S
NUCLA          FAIR      86  27  11 CALM      30.21S
$$

COZ017>023-064>068-190100-
...SOUTHWEST COLORADO...

CITY           SKY/WX    TMP DP  RH WIND       PRES   REMARKS
DURANGO        FAIR      85  25  11 SW8       30.24S
CORTEZ         FAIR      88  25  10 NW6       30.18F
PAGOSA SPRINGS FAIR      80  20  11 W5        30.33S
TELLURIDE      FAIR      74  30  20 S7G16     30.47S
WOLF CREEK PAS FAIR      59  28  31 S9        30.72S
$$

COZ009-010-012-014-032>034-037-058>063-190100-
...CENTRAL COLORADO...

CITY           SKY/WX    TMP DP  RH WIND       PRES   REMARKS
ASPEN          FAIR      80  33  18 N10       30.32S
BUENA VISTA    PTSUNNY   80  26  14 SW10      30.32S
COPPER MTN     FAIR      63  27  25 NW15G23   30.68S
BERTHOUD PASS  PTSUNNY   52  46  82 NW10      30.71S
COTTONWOOD PAS FAIR      72  18  13 W8        30.49S
GUNNISON       FAIR      78  36  21 CALM      30.32S
KREMMLING      FAIR      81  28  15 W3        30.29S
LEADVILLE      FAIR      69  28  21 NW13      30.48R
MONARCH PASS   FAIR      63  28  27 W22G28    30.77F
SALIDA         FAIR      83  25  12 W6        30.35S
SUNLIGHT       FAIR      63  32  31 SW8       30.60S
WILKERSON PASS PTSUNNY   63  28  27 SW6       30.63S
$$

COZ069>075-190100-
...SAN LUIS VALLEY/SANGRE DE CRISTO MOUNTAINS...

CITY           SKY/WX    TMP DP  RH WIND       PRES   REMARKS
ALAMOSA        FAIR      79  34  19 S6        30.30F
DEL NORTE      FAIR      74  40  28 SE6       30.34S
LA VETA PASS   NOT AVBL
SAGUACHE       FAIR      75  36  23 S8        30.33S
$$

COZ035-036-038>040-190100-
...NORTHERN COLORADO FRONT RANGE...

CITY           SKY/WX    TMP DP  RH WIND       PRES   REMARKS
DENVER INTL AP FAIR      86  38  18 E9        30.13S
DMNS CITY PARK   N/A     89  34  14 NE1       30.12S
AURORA         MOSUNNY   87  43  22 NE5       30.15S
FRONT RANGE AP FAIR      86  37  17 NE6       30.15S
ERIE MUNI ARPT FAIR      87  34  15 NE9       30.16S
BOULDER MUN AP FAIR      86  41  20 N6        30.13S
CENTENNIAL     FAIR      84  43  23 SE12      30.16S
BROOMFIELD     MOSUNNY   86  37  17 CALM      30.16S
FORT COLLINS   FAIR      85  46  25 SE6       30.12S
LONGMONT       FAIR      88  40  18 NE7       30.13S
$$

COZ041-046-047-076>085-087-088-190100-
...PIKES PEAK/PALMER DIVIDE AND SOUTHERN FOOTHILLS...

CITY           SKY/WX    TMP DP  RH WIND       PRES   REMARKS
COLO. SPRINGS  FAIR      83  41  22 SE10      30.21S
A. F. ACADEMY  FAIR      79  41  25 SE13      30.22S
SCHRIEVER AFB  FAIR      80  39  23 E10       30.22S
CHEYENNE MTN   FAIR      74  40  29 S9        30.22R
ELLICOTT       NOT AVBL
FALCON         FAIR      79  40  24 SE10G17   30.28S
FORT CARSON    FAIR      82  44  25 E13       30.17S
LIMON          FAIR      81  47  30 SE8       30.16S
MONUMENT HILL  FAIR      73  45  35 SE9       30.29S
CANON CITY     SUNNY     90  46  22 SE12      30.11S
WALSENBURG     NOT AVBL
TRINIDAD       FAIR      85  37  18 S9        30.17F
$$

COZ042>045-048>051-090-091-190100-
...NORTHEAST COLORADO...

CITY           SKY/WX    TMP DP  RH WIND       PRES   REMARKS
GREELEY ARPT   FAIR      89  46  22 SE5       30.10S
AKRON          FAIR      83  45  26 SE9       30.11S
BURLINGTON     FAIR      83  53  35 E8        30.11R
WRAY           NOT AVBL
YUMA           FAIR      79  36  21 E6        30.09S
STERLING       NOT AVBL
HOLYOKE        FAIR      84  52  32 SE7       30.07S
FORT MORGAN    FAIR      86  40  19 SE7       30.10S
$$

COZ086-089-092>099-190100-
...SOUTHEAST COLORADO...

CITY           SKY/WX    TMP DP  RH WIND       PRES   REMARKS
PUEBLO         FAIR      91  42  18 SE12      30.07F
LA JUNTA       FAIR      90  48  23 E10       30.07S
LAMAR          FAIR      89  52  28 SE5       30.03S
SPRINGFIELD      N/A     86  52  30 E7        30.09S
$$




USA.gov is the U.S. government's official web portal to all federal, state and local government web resources and services.